owner,sensor,date,latitude,longitude,relative_humidity,qcFlag 
COMPS,ioos:station:USF.COMPS:ARP:1,2019-01-01T00:00:00Z,28.4330,-82.6670,60.1,1111122 
COMPS,ioos:station:USF.COMPS:ARP:1,2019-01-01T00:06:00Z,28.4330,-82.6670,69.12,1111122 
COMPS,ioos:station:USF.COMPS:ARP:1,2019-01-01T00:12:00Z,28.4330,-82.6670,70.44,1111122 
COMPS,ioos:station:USF.COMPS:ARP:1,2019-01-01T00:18:00Z,28.4330,-82.6670,70.12,1111122 
COMPS,ioos:station:USF.COMPS:ARP:1,2019-01-01T00:24:00Z,28.4330,-82.6670,71.96,1111122 
COMPS,ioos:station:USF.COMPS:ARP:1,2019-01-01T00:30:00Z,28.4330,-82.6670,73.26,1111122 
COMPS,ioos:station:USF.COMPS:ARP:1,2019-01-01T00:36:00Z,28.4330,-82.6670,70.83,1111122 
COMPS,ioos:station:USF.COMPS:ARP:1,2019-01-01T00:42:00Z,28.4330,-82.6670,80.72,1111122 
COMPS,ioos:station:USF.COMPS:ARP:1,2019-01-01T00:48:00Z,28.4330,-82.6670,77.37,1111122 
COMPS,ioos:station:USF.COMPS:ARP:1,2019-01-01T00:54:00Z,28.4330,-82.6670,67.79,1111122 
COMPS,ioos:station:USF.COMPS:ARP:1,2019-01-01T01:00:00Z,28.4330,-82.6670,77.09,1111122 
COMPS,ioos:station:USF.COMPS:ARP:1,2019-01-01T01:06:00Z,28.4330,-82.6670,82.65,1111122 
COMPS,ioos:station:USF.COMPS:ARP:1,2019-01-01T01:12:00Z,28.4330,-82.6670,78.04,1111122 
COMPS,ioos:station:USF.COMPS:ARP:1,2019-01-01T01:18:00Z,28.4330,-82.6670,76.34,1111122 
COMPS,ioos:station:USF.COMPS:ARP:1,2019-01-01T01:24:00Z,28.4330,-82.6670,77.73,1111122 
COMPS,ioos:station:USF.COMPS:ARP:1,2019-01-01T01:30:00Z,28.4330,-82.6670,78.87,1111122 
COMPS,ioos:station:USF.COMPS:ARP:1,2019-01-01T01:36:00Z,28.4330,-82.6670,81.13,1111122 
COMPS,ioos:station:USF.COMPS:ARP:1,2019-01-01T01:42:00Z,28.4330,-82.6670,82.93,1111122 
COMPS,ioos:station:USF.COMPS:ARP:1,2019-01-01T01:48:00Z,28.4330,-82.6670,83.81,1111122 
COMPS,ioos:station:USF.COMPS:ARP:1,2019-01-01T01:54:00Z,28.4330,-82.6670,83.4,1111122 
COMPS,ioos:station:USF.COMPS:ARP:1,2019-01-01T02:00:00Z,28.4330,-82.6670,82.92,1111122 
COMPS,ioos:station:USF.COMPS:ARP:1,2019-01-01T02:06:00Z,28.4330,-82.6670,82.78,1111122 
COMPS,ioos:station:USF.COMPS:ARP:1,2019-01-01T02:12:00Z,28.4330,-82.6670,84.51,1111122 
COMPS,ioos:station:USF.COMPS:ARP:1,2019-01-01T02:18:00Z,28.4330,-82.6670,85.86,1111122 
COMPS,ioos:station:USF.COMPS:ARP:1,2019-01-01T02:24:00Z,28.4330,-82.6670,84.57,1111122 
COMPS,ioos:station:USF.COMPS:ARP:1,2019-01-01T02:30:00Z,28.4330,-82.6670,84.44,1111122 
COMPS,ioos:station:USF.COMPS:ARP:1,2019-01-01T02:36:00Z,28.4330,-82.6670,82.94,1111122 
COMPS,ioos:station:USF.COMPS:ARP:1,2019-01-01T02:42:00Z,28.4330,-82.6670,82.19,1111122 
COMPS,ioos:station:USF.COMPS:ARP:1,2019-01-01T02:48:00Z,28.4330,-82.6670,80.49,1111122 
COMPS,ioos:station:USF.COMPS:ARP:1,2019-01-01T02:54:00Z,28.4330,-82.6670,81.46,1111122 
COMPS,ioos:station:USF.COMPS:ARP:1,2019-01-01T03:00:00Z,28.4330,-82.6670,80.71,1111122 
COMPS,ioos:station:USF.COMPS:ARP:1,2019-01-01T03:06:00Z,28.4330,-82.6670,83.5,1111122 
COMPS,ioos:station:USF.COMPS:ARP:1,2019-01-01T03:12:00Z,28.4330,-82.6670,84.07,1111122 
COMPS,ioos:station:USF.COMPS:ARP:1,2019-01-01T03:18:00Z,28.4330,-82.6670,86.0,1111122 
COMPS,ioos:station:USF.COMPS:ARP:1,2019-01-01T03:24:00Z,28.4330,-82.6670,88.37,1111122 
COMPS,ioos:station:USF.COMPS:ARP:1,2019-01-01T03:30:00Z,28.4330,-82.6670,90.19,1111122 
COMPS,ioos:station:USF.COMPS:ARP:1,2019-01-01T03:36:00Z,28.4330,-82.6670,90.41,1111122 
COMPS,ioos:station:USF.COMPS:ARP:1,2019-01-01T03:42:00Z,28.4330,-82.6670,92.05,1111122 
COMPS,ioos:station:USF.COMPS:ARP:1,2019-01-01T03:48:00Z,28.4330,-82.6670,85.26,1111122 
COMPS,ioos:station:USF.COMPS:ARP:1,2019-01-01T03:54:00Z,28.4330,-82.6670,85.72,1111122 
COMPS,ioos:station:USF.COMPS:ARP:1,2019-01-01T04:00:00Z,28.4330,-82.6670,86.31,1111122 
COMPS,ioos:station:USF.COMPS:ARP:1,2019-01-01T04:06:00Z,28.4330,-82.6670,86.48,1111122 
COMPS,ioos:station:USF.COMPS:ARP:1,2019-01-01T04:12:00Z,28.4330,-82.6670,86.32,1111122 
COMPS,ioos:station:USF.COMPS:ARP:1,2019-01-01T04:18:00Z,28.4330,-82.6670,86.06,1111122 
COMPS,ioos:station:USF.COMPS:ARP:1,2019-01-01T04:24:00Z,28.4330,-82.6670,86.47,1111122 
COMPS,ioos:station:USF.COMPS:ARP:1,2019-01-01T04:30:00Z,28.4330,-82.6670,86.86,1111122 
COMPS,ioos:station:USF.COMPS:ARP:1,2019-01-01T04:36:00Z,28.4330,-82.6670,87.21,1111122 
COMPS,ioos:station:USF.COMPS:ARP:1,2019-01-01T04:42:00Z,28.4330,-82.6670,87.63,1111122 
COMPS,ioos:station:USF.COMPS:ARP:1,2019-01-01T04:48:00Z,28.4330,-82.6670,87.92,1111122 
COMPS,ioos:station:USF.COMPS:ARP:1,2019-01-01T04:54:00Z,28.4330,-82.6670,88.11,1111122 
COMPS,ioos:station:USF.COMPS:ARP:1,2019-01-01T05:00:00Z,28.4330,-82.6670,87.63,1111122 
COMPS,ioos:station:USF.COMPS:ARP:1,2019-01-01T05:06:00Z,28.4330,-82.6670,87.07,1111122 
COMPS,ioos:station:USF.COMPS:ARP:1,2019-01-01T05:12:00Z,28.4330,-82.6670,87.25,1111122 
COMPS,ioos:station:USF.COMPS:ARP:1,2019-01-01T05:18:00Z,28.4330,-82.6670,88.55,1111122 
COMPS,ioos:station:USF.COMPS:ARP:1,2019-01-01T05:24:00Z,28.4330,-82.6670,88.83,1111122 
COMPS,ioos:station:USF.COMPS:ARP:1,2019-01-01T05:30:00Z,28.4330,-82.6670,88.71,1111122 
COMPS,ioos:station:USF.COMPS:ARP:1,2019-01-01T05:36:00Z,28.4330,-82.6670,88.98,1111122 
COMPS,ioos:station:USF.COMPS:ARP:1,2019-01-01T05:42:00Z,28.4330,-82.6670,88.84,1111122 
COMPS,ioos:station:USF.COMPS:ARP:1,2019-01-01T05:48:00Z,28.4330,-82.6670,89.09,1111122 
COMPS,ioos:station:USF.COMPS:ARP:1,2019-01-01T05:54:00Z,28.4330,-82.6670,90.38,1111122 
COMPS,ioos:station:USF.COMPS:ARP:1,2019-01-01T06:00:00Z,28.4330,-82.6670,91.61,1111122 
COMPS,ioos:station:USF.COMPS:ARP:1,2019-01-01T06:06:00Z,28.4330,-82.6670,91.77,1111122 
COMPS,ioos:station:USF.COMPS:ARP:1,2019-01-01T06:12:00Z,28.4330,-82.6670,92.46,1111122 
COMPS,ioos:station:USF.COMPS:ARP:1,2019-01-01T06:18:00Z,28.4330,-82.6670,93.04,1111122 
COMPS,ioos:station:USF.COMPS:ARP:1,2019-01-01T06:24:00Z,28.4330,-82.6670,93.58,1111122 
COMPS,ioos:station:USF.COMPS:ARP:1,2019-01-01T06:30:00Z,28.4330,-82.6670,93.68,1111122 
COMPS,ioos:station:USF.COMPS:ARP:1,2019-01-01T06:36:00Z,28.4330,-82.6670,91.56,1111122 
COMPS,ioos:station:USF.COMPS:ARP:1,2019-01-01T06:42:00Z,28.4330,-82.6670,91.6,1111122 
COMPS,ioos:station:USF.COMPS:ARP:1,2019-01-01T06:48:00Z,28.4330,-82.6670,91.41,1111122 
COMPS,ioos:station:USF.COMPS:ARP:1,2019-01-01T06:54:00Z,28.4330,-82.6670,91.34,1111122 
COMPS,ioos:station:USF.COMPS:ARP:1,2019-01-01T07:00:00Z,28.4330,-82.6670,91.58,1111122 
COMPS,ioos:station:USF.COMPS:ARP:1,2019-01-01T07:06:00Z,28.4330,-82.6670,91.53,1111122 
COMPS,ioos:station:USF.COMPS:ARP:1,2019-01-01T07:12:00Z,28.4330,-82.6670,91.39,1111122 
COMPS,ioos:station:USF.COMPS:ARP:1,2019-01-01T07:18:00Z,28.4330,-82.6670,91.43,1111122 
COMPS,ioos:station:USF.COMPS:ARP:1,2019-01-01T07:24:00Z,28.4330,-82.6670,91.07,1111122 
COMPS,ioos:station:USF.COMPS:ARP:1,2019-01-01T07:30:00Z,28.4330,-82.6670,91.0,1111122 
COMPS,ioos:station:USF.COMPS:ARP:1,2019-01-01T07:36:00Z,28.4330,-82.6670,91.14,1111122 
COMPS,ioos:station:USF.COMPS:ARP:1,2019-01-01T07:42:00Z,28.4330,-82.6670,91.38,1111122 
COMPS,ioos:station:USF.COMPS:ARP:1,2019-01-01T07:48:00Z,28.4330,-82.6670,91.47,1111122 
COMPS,ioos:station:USF.COMPS:ARP:1,2019-01-01T07:54:00Z,28.4330,-82.6670,91.41,1111122 
COMPS,ioos:station:USF.COMPS:ARP:1,2019-01-01T08:00:00Z,28.4330,-82.6670,91.55,1111122 
COMPS,ioos:station:USF.COMPS:ARP:1,2019-01-01T08:06:00Z,28.4330,-82.6670,91.5,1111122 
COMPS,ioos:station:USF.COMPS:ARP:1,2019-01-01T08:12:00Z,28.4330,-82.6670,91.59,1111122 
COMPS,ioos:station:USF.COMPS:ARP:1,2019-01-01T08:18:00Z,28.4330,-82.6670,91.71,1111122 
COMPS,ioos:station:USF.COMPS:ARP:1,2019-01-01T08:24:00Z,28.4330,-82.6670,91.57,1111122 
COMPS,ioos:station:USF.COMPS:ARP:1,2019-01-01T08:30:00Z,28.4330,-82.6670,91.46,1111122 
COMPS,ioos:station:USF.COMPS:ARP:1,2019-01-01T08:36:00Z,28.4330,-82.6670,91.57,1111122 
COMPS,ioos:station:USF.COMPS:ARP:1,2019-01-01T08:42:00Z,28.4330,-82.6670,91.63,1111122 
COMPS,ioos:station:USF.COMPS:ARP:1,2019-01-01T08:48:00Z,28.4330,-82.6670,91.77,1111122 
COMPS,ioos:station:USF.COMPS:ARP:1,2019-01-01T08:54:00Z,28.4330,-82.6670,91.87,1111122 
COMPS,ioos:station:USF.COMPS:ARP:1,2019-01-01T09:00:00Z,28.4330,-82.6670,92.23,1111122 
COMPS,ioos:station:USF.COMPS:ARP:1,2019-01-01T09:06:00Z,28.4330,-82.6670,92.44,1111122 
COMPS,ioos:station:USF.COMPS:ARP:1,2019-01-01T09:12:00Z,28.4330,-82.6670,92.64,1111122 
COMPS,ioos:station:USF.COMPS:ARP:1,2019-01-01T09:18:00Z,28.4330,-82.6670,92.29,1111122 
COMPS,ioos:station:USF.COMPS:ARP:1,2019-01-01T09:24:00Z,28.4330,-82.6670,92.32,1111122 
COMPS,ioos:station:USF.COMPS:ARP:1,2019-01-01T09:30:00Z,28.4330,-82.6670,92.74,1111122 
COMPS,ioos:station:USF.COMPS:ARP:1,2019-01-01T09:36:00Z,28.4330,-82.6670,92.73,1111122 
COMPS,ioos:station:USF.COMPS:ARP:1,2019-01-01T09:42:00Z,28.4330,-82.6670,92.8,1111122 
COMPS,ioos:station:USF.COMPS:ARP:1,2019-01-01T09:48:00Z,28.4330,-82.6670,92.84,1111122 
COMPS,ioos:station:USF.COMPS:ARP:1,2019-01-01T09:54:00Z,28.4330,-82.6670,92.97,1111122 
COMPS,ioos:station:USF.COMPS:ARP:1,2019-01-01T10:00:00Z,28.4330,-82.6670,92.69,1111122 
COMPS,ioos:station:USF.COMPS:ARP:1,2019-01-01T10:06:00Z,28.4330,-82.6670,92.43,1111122 
COMPS,ioos:station:USF.COMPS:ARP:1,2019-01-01T10:12:00Z,28.4330,-82.6670,92.46,1111122 
COMPS,ioos:station:USF.COMPS:ARP:1,2019-01-01T10:18:00Z,28.4330,-82.6670,92.39,1111122 
COMPS,ioos:station:USF.COMPS:ARP:1,2019-01-01T10:24:00Z,28.4330,-82.6670,92.37,1111122 
COMPS,ioos:station:USF.COMPS:ARP:1,2019-01-01T10:30:00Z,28.4330,-82.6670,92.26,1111122 
COMPS,ioos:station:USF.COMPS:ARP:1,2019-01-01T10:36:00Z,28.4330,-82.6670,92.66,1111122 
COMPS,ioos:station:USF.COMPS:ARP:1,2019-01-01T10:42:00Z,28.4330,-82.6670,92.68,1111122 
COMPS,ioos:station:USF.COMPS:ARP:1,2019-01-01T10:48:00Z,28.4330,-82.6670,92.54,1111122 
COMPS,ioos:station:USF.COMPS:ARP:1,2019-01-01T10:54:00Z,28.4330,-82.6670,92.95,1111122 
COMPS,ioos:station:USF.COMPS:ARP:1,2019-01-01T11:00:00Z,28.4330,-82.6670,93.27,1111122 
COMPS,ioos:station:USF.COMPS:ARP:1,2019-01-01T11:06:00Z,28.4330,-82.6670,93.52,1111122 
COMPS,ioos:station:USF.COMPS:ARP:1,2019-01-01T11:12:00Z,28.4330,-82.6670,93.66,1111122 
COMPS,ioos:station:USF.COMPS:ARP:1,2019-01-01T11:18:00Z,28.4330,-82.6670,93.62,1111122 
COMPS,ioos:station:USF.COMPS:ARP:1,2019-01-01T11:24:00Z,28.4330,-82.6670,93.57,1111122 
COMPS,ioos:station:USF.COMPS:ARP:1,2019-01-01T11:30:00Z,28.4330,-82.6670,93.98,1111122 
COMPS,ioos:station:USF.COMPS:ARP:1,2019-01-01T11:36:00Z,28.4330,-82.6670,94.07,1111122 
COMPS,ioos:station:USF.COMPS:ARP:1,2019-01-01T11:42:00Z,28.4330,-82.6670,94.15,1111122 
COMPS,ioos:station:USF.COMPS:ARP:1,2019-01-01T11:48:00Z,28.4330,-82.6670,94.18,1111122 
COMPS,ioos:station:USF.COMPS:ARP:1,2019-01-01T11:54:00Z,28.4330,-82.6670,94.32,1111122 
COMPS,ioos:station:USF.COMPS:ARP:1,2019-01-01T12:00:00Z,28.4330,-82.6670,94.59,1111122 
COMPS,ioos:station:USF.COMPS:ARP:1,2019-01-01T12:06:00Z,28.4330,-82.6670,95.02,1111122 
COMPS,ioos:station:USF.COMPS:ARP:1,2019-01-01T12:12:00Z,28.4330,-82.6670,95.06,1111122 
COMPS,ioos:station:USF.COMPS:ARP:1,2019-01-01T12:18:00Z,28.4330,-82.6670,95.13,1111122 
COMPS,ioos:station:USF.COMPS:ARP:1,2019-01-01T12:24:00Z,28.4330,-82.6670,95.14,1111122 
COMPS,ioos:station:USF.COMPS:ARP:1,2019-01-01T12:30:00Z,28.4330,-82.6670,95.25,1111122 
COMPS,ioos:station:USF.COMPS:ARP:1,2019-01-01T12:36:00Z,28.4330,-82.6670,95.13,1111122 
COMPS,ioos:station:USF.COMPS:ARP:1,2019-01-01T12:42:00Z,28.4330,-82.6670,95.21,1111122 
COMPS,ioos:station:USF.COMPS:ARP:1,2019-01-01T12:48:00Z,28.4330,-82.6670,95.3,1111122 
COMPS,ioos:station:USF.COMPS:ARP:1,2019-01-01T12:54:00Z,28.4330,-82.6670,95.1,1111122 
COMPS,ioos:station:USF.COMPS:ARP:1,2019-01-01T13:00:00Z,28.4330,-82.6670,95.06,1111122 
COMPS,ioos:station:USF.COMPS:ARP:1,2019-01-01T13:06:00Z,28.4330,-82.6670,95.0,1111122 
COMPS,ioos:station:USF.COMPS:ARP:1,2019-01-01T13:12:00Z,28.4330,-82.6670,94.71,1111122 
COMPS,ioos:station:USF.COMPS:ARP:1,2019-01-01T13:18:00Z,28.4330,-82.6670,94.26,1111122 
COMPS,ioos:station:USF.COMPS:ARP:1,2019-01-01T13:24:00Z,28.4330,-82.6670,94.7,1111122 
COMPS,ioos:station:USF.COMPS:ARP:1,2019-01-01T13:30:00Z,28.4330,-82.6670,96.16,1111122 
COMPS,ioos:station:USF.COMPS:ARP:1,2019-01-01T13:36:00Z,28.4330,-82.6670,88.37,1111122 
COMPS,ioos:station:USF.COMPS:ARP:1,2019-01-01T13:42:00Z,28.4330,-82.6670,81.23,1111122 
COMPS,ioos:station:USF.COMPS:ARP:1,2019-01-01T13:48:00Z,28.4330,-82.6670,80.81,1111122 
COMPS,ioos:station:USF.COMPS:ARP:1,2019-01-01T13:54:00Z,28.4330,-82.6670,79.32,1111122 
COMPS,ioos:station:USF.COMPS:ARP:1,2019-01-01T14:00:00Z,28.4330,-82.6670,78.45,1111122 
COMPS,ioos:station:USF.COMPS:ARP:1,2019-01-01T14:06:00Z,28.4330,-82.6670,76.43,1111122 
COMPS,ioos:station:USF.COMPS:ARP:1,2019-01-01T14:12:00Z,28.4330,-82.6670,76.44,1111122 
COMPS,ioos:station:USF.COMPS:ARP:1,2019-01-01T14:18:00Z,28.4330,-82.6670,74.61,1111122 
COMPS,ioos:station:USF.COMPS:ARP:1,2019-01-01T14:24:00Z,28.4330,-82.6670,74.19,1111122 
COMPS,ioos:station:USF.COMPS:ARP:1,2019-01-01T14:30:00Z,28.4330,-82.6670,74.79,1111122 
COMPS,ioos:station:USF.COMPS:ARP:1,2019-01-01T14:36:00Z,28.4330,-82.6670,72.31,1111122 
COMPS,ioos:station:USF.COMPS:ARP:1,2019-01-01T14:42:00Z,28.4330,-82.6670,70.66,1111122 
COMPS,ioos:station:USF.COMPS:ARP:1,2019-01-01T14:48:00Z,28.4330,-82.6670,69.18,1111122 
COMPS,ioos:station:USF.COMPS:ARP:1,2019-01-01T14:54:00Z,28.4330,-82.6670,68.07,1111122 
COMPS,ioos:station:USF.COMPS:ARP:1,2019-01-01T15:00:00Z,28.4330,-82.6670,68.64,1111122 
COMPS,ioos:station:USF.COMPS:ARP:1,2019-01-01T15:06:00Z,28.4330,-82.6670,69.38,1111122 
COMPS,ioos:station:USF.COMPS:ARP:1,2019-01-01T15:12:00Z,28.4330,-82.6670,67.91,1111122 
COMPS,ioos:station:USF.COMPS:ARP:1,2019-01-01T15:18:00Z,28.4330,-82.6670,67.19,1111122 
COMPS,ioos:station:USF.COMPS:ARP:1,2019-01-01T15:24:00Z,28.4330,-82.6670,68.04,1111122 
COMPS,ioos:station:USF.COMPS:ARP:1,2019-01-01T15:30:00Z,28.4330,-82.6670,66.91,1111122 
COMPS,ioos:station:USF.COMPS:ARP:1,2019-01-01T15:36:00Z,28.4330,-82.6670,67.34,1111122 
COMPS,ioos:station:USF.COMPS:ARP:1,2019-01-01T15:42:00Z,28.4330,-82.6670,64.5,1111122 
COMPS,ioos:station:USF.COMPS:ARP:1,2019-01-01T15:48:00Z,28.4330,-82.6670,63.96,1111122 
COMPS,ioos:station:USF.COMPS:ARP:1,2019-01-01T15:54:00Z,28.4330,-82.6670,61.78,1111122 
COMPS,ioos:station:USF.COMPS:ARP:1,2019-01-01T16:00:00Z,28.4330,-82.6670,62.56,1111122 
COMPS,ioos:station:USF.COMPS:ARP:1,2019-01-01T16:06:00Z,28.4330,-82.6670,62.15,1111122 
COMPS,ioos:station:USF.COMPS:ARP:1,2019-01-01T16:12:00Z,28.4330,-82.6670,64.07,1111122 
COMPS,ioos:station:USF.COMPS:ARP:1,2019-01-01T16:18:00Z,28.4330,-82.6670,58.33,1111122 
COMPS,ioos:station:USF.COMPS:ARP:1,2019-01-01T16:24:00Z,28.4330,-82.6670,61.87,1111122 
COMPS,ioos:station:USF.COMPS:ARP:1,2019-01-01T16:30:00Z,28.4330,-82.6670,64.38,1111122 
COMPS,ioos:station:USF.COMPS:ARP:1,2019-01-01T16:36:00Z,28.4330,-82.6670,59.09,1111122 
COMPS,ioos:station:USF.COMPS:ARP:1,2019-01-01T16:42:00Z,28.4330,-82.6670,57.06,1111122 
COMPS,ioos:station:USF.COMPS:ARP:1,2019-01-01T16:48:00Z,28.4330,-82.6670,61.5,1111122 
COMPS,ioos:station:USF.COMPS:ARP:1,2019-01-01T16:54:00Z,28.4330,-82.6670,60.09,1111122 
COMPS,ioos:station:USF.COMPS:ARP:1,2019-01-01T17:00:00Z,28.4330,-82.6670,59.98,1111122 
COMPS,ioos:station:USF.COMPS:ARP:1,2019-01-01T17:06:00Z,28.4330,-82.6670,71.99,1111122 
COMPS,ioos:station:USF.COMPS:ARP:1,2019-01-01T17:12:00Z,28.4330,-82.6670,77.62,1111122 
COMPS,ioos:station:USF.COMPS:ARP:1,2019-01-01T17:18:00Z,28.4330,-82.6670,79.64,1111122 
COMPS,ioos:station:USF.COMPS:ARP:1,2019-01-01T17:24:00Z,28.4330,-82.6670,81.13,1111122 
COMPS,ioos:station:USF.COMPS:ARP:1,2019-01-01T17:30:00Z,28.4330,-82.6670,81.95,1111122 
COMPS,ioos:station:USF.COMPS:ARP:1,2019-01-01T17:36:00Z,28.4330,-82.6670,81.98,1111122 
COMPS,ioos:station:USF.COMPS:ARP:1,2019-01-01T17:42:00Z,28.4330,-82.6670,83.49,1111122 
COMPS,ioos:station:USF.COMPS:ARP:1,2019-01-01T17:48:00Z,28.4330,-82.6670,85.73,1111122 
COMPS,ioos:station:USF.COMPS:ARP:1,2019-01-01T17:54:00Z,28.4330,-82.6670,87.73,1111122 
COMPS,ioos:station:USF.COMPS:ARP:1,2019-01-01T18:00:00Z,28.4330,-82.6670,87.6,1111122 
COMPS,ioos:station:USF.COMPS:ARP:1,2019-01-01T18:06:00Z,28.4330,-82.6670,89.51,1111122 
COMPS,ioos:station:USF.COMPS:ARP:1,2019-01-01T18:12:00Z,28.4330,-82.6670,89.25,1111122 
COMPS,ioos:station:USF.COMPS:ARP:1,2019-01-01T18:18:00Z,28.4330,-82.6670,89.04,1111122 
COMPS,ioos:station:USF.COMPS:ARP:1,2019-01-01T18:24:00Z,28.4330,-82.6670,88.75,1111122 
COMPS,ioos:station:USF.COMPS:ARP:1,2019-01-01T18:30:00Z,28.4330,-82.6670,87.37,1111122 
COMPS,ioos:station:USF.COMPS:ARP:1,2019-01-01T18:36:00Z,28.4330,-82.6670,85.99,1111122 
COMPS,ioos:station:USF.COMPS:ARP:1,2019-01-01T18:42:00Z,28.4330,-82.6670,87.64,1111122 
COMPS,ioos:station:USF.COMPS:ARP:1,2019-01-01T18:48:00Z,28.4330,-82.6670,89.61,1111122 
COMPS,ioos:station:USF.COMPS:ARP:1,2019-01-01T18:54:00Z,28.4330,-82.6670,90.31,1111122 
COMPS,ioos:station:USF.COMPS:ARP:1,2019-01-01T19:00:00Z,28.4330,-82.6670,90.37,1111122 
COMPS,ioos:station:USF.COMPS:ARP:1,2019-01-01T19:06:00Z,28.4330,-82.6670,88.86,1111122 
COMPS,ioos:station:USF.COMPS:ARP:1,2019-01-01T19:12:00Z,28.4330,-82.6670,85.93,1111122 
COMPS,ioos:station:USF.COMPS:ARP:1,2019-01-01T19:18:00Z,28.4330,-82.6670,83.94,1111122 
COMPS,ioos:station:USF.COMPS:ARP:1,2019-01-01T19:24:00Z,28.4330,-82.6670,85.05,1111122 
COMPS,ioos:station:USF.COMPS:ARP:1,2019-01-01T19:30:00Z,28.4330,-82.6670,85.22,1111122 
COMPS,ioos:station:USF.COMPS:ARP:1,2019-01-01T19:36:00Z,28.4330,-82.6670,86.72,1111122 
COMPS,ioos:station:USF.COMPS:ARP:1,2019-01-01T19:42:00Z,28.4330,-82.6670,86.12,1111122 
COMPS,ioos:station:USF.COMPS:ARP:1,2019-01-01T19:48:00Z,28.4330,-82.6670,85.62,1111122 
COMPS,ioos:station:USF.COMPS:ARP:1,2019-01-01T19:54:00Z,28.4330,-82.6670,85.2,1111122 
COMPS,ioos:station:USF.COMPS:ARP:1,2019-01-01T20:00:00Z,28.4330,-82.6670,84.82,1111122 
COMPS,ioos:station:USF.COMPS:ARP:1,2019-01-01T20:06:00Z,28.4330,-82.6670,84.49,1111122 
COMPS,ioos:station:USF.COMPS:ARP:1,2019-01-01T20:12:00Z,28.4330,-82.6670,85.62,1111122 
COMPS,ioos:station:USF.COMPS:ARP:1,2019-01-01T20:18:00Z,28.4330,-82.6670,85.22,1111122 
COMPS,ioos:station:USF.COMPS:ARP:1,2019-01-01T20:24:00Z,28.4330,-82.6670,82.91,1111122 
COMPS,ioos:station:USF.COMPS:ARP:1,2019-01-01T20:30:00Z,28.4330,-82.6670,82.44,1111122 
COMPS,ioos:station:USF.COMPS:ARP:1,2019-01-01T20:36:00Z,28.4330,-82.6670,82.06,1111122 
COMPS,ioos:station:USF.COMPS:ARP:1,2019-01-01T20:42:00Z,28.4330,-82.6670,82.52,1111122 
COMPS,ioos:station:USF.COMPS:ARP:1,2019-01-01T20:48:00Z,28.4330,-82.6670,82.38,1111122 
COMPS,ioos:station:USF.COMPS:ARP:1,2019-01-01T20:54:00Z,28.4330,-82.6670,83.47,1111122 
COMPS,ioos:station:USF.COMPS:ARP:1,2019-01-01T21:00:00Z,28.4330,-82.6670,81.31,1111122 
COMPS,ioos:station:USF.COMPS:ARP:1,2019-01-01T21:06:00Z,28.4330,-82.6670,80.38,1111122 
COMPS,ioos:station:USF.COMPS:ARP:1,2019-01-01T21:12:00Z,28.4330,-82.6670,79.99,1111122 
COMPS,ioos:station:USF.COMPS:ARP:1,2019-01-01T21:18:00Z,28.4330,-82.6670,80.0,1111122 
COMPS,ioos:station:USF.COMPS:ARP:1,2019-01-01T21:24:00Z,28.4330,-82.6670,80.84,1111122 
COMPS,ioos:station:USF.COMPS:ARP:1,2019-01-01T21:30:00Z,28.4330,-82.6670,81.77,1111122 
COMPS,ioos:station:USF.COMPS:ARP:1,2019-01-01T21:36:00Z,28.4330,-82.6670,79.9,1111122 
COMPS,ioos:station:USF.COMPS:ARP:1,2019-01-01T21:42:00Z,28.4330,-82.6670,79.94,1111122 
COMPS,ioos:station:USF.COMPS:ARP:1,2019-01-01T21:48:00Z,28.4330,-82.6670,82.26,1111122 
COMPS,ioos:station:USF.COMPS:ARP:1,2019-01-01T21:54:00Z,28.4330,-82.6670,81.71,1111122 
COMPS,ioos:station:USF.COMPS:ARP:1,2019-01-01T22:00:00Z,28.4330,-82.6670,82.7,1111122 
COMPS,ioos:station:USF.COMPS:ARP:1,2019-01-01T22:06:00Z,28.4330,-82.6670,82.97,1111122 
COMPS,ioos:station:USF.COMPS:ARP:1,2019-01-01T22:12:00Z,28.4330,-82.6670,81.81,1111122 
COMPS,ioos:station:USF.COMPS:ARP:1,2019-01-01T22:18:00Z,28.4330,-82.6670,80.74,1111122 
COMPS,ioos:station:USF.COMPS:ARP:1,2019-01-01T22:24:00Z,28.4330,-82.6670,82.88,1111122 
COMPS,ioos:station:USF.COMPS:ARP:1,2019-01-01T22:30:00Z,28.4330,-82.6670,84.49,1111122 
COMPS,ioos:station:USF.COMPS:ARP:1,2019-01-01T22:36:00Z,28.4330,-82.6670,80.69,1111122 
COMPS,ioos:station:USF.COMPS:ARP:1,2019-01-01T22:42:00Z,28.4330,-82.6670,75.2,1111122 
COMPS,ioos:station:USF.COMPS:ARP:1,2019-01-01T22:48:00Z,28.4330,-82.6670,71.07,1111122 
COMPS,ioos:station:USF.COMPS:ARP:1,2019-01-01T22:54:00Z,28.4330,-82.6670,68.97,1111122 
COMPS,ioos:station:USF.COMPS:ARP:1,2019-01-01T23:00:00Z,28.4330,-82.6670,65.33,1111122 
COMPS,ioos:station:USF.COMPS:ARP:1,2019-01-01T23:06:00Z,28.4330,-82.6670,65.07,1111122 
COMPS,ioos:station:USF.COMPS:ARP:1,2019-01-01T23:12:00Z,28.4330,-82.6670,65.61,1111122 
COMPS,ioos:station:USF.COMPS:ARP:1,2019-01-01T23:18:00Z,28.4330,-82.6670,70.36,1111122 
COMPS,ioos:station:USF.COMPS:ARP:1,2019-01-01T23:24:00Z,28.4330,-82.6670,70.36,1111122 
COMPS,ioos:station:USF.COMPS:ARP:1,2019-01-01T23:30:00Z,28.4330,-82.6670,70.73,1111122 
COMPS,ioos:station:USF.COMPS:ARP:1,2019-01-01T23:36:00Z,28.4330,-82.6670,72.3,1111122 
COMPS,ioos:station:USF.COMPS:ARP:1,2019-01-01T23:42:00Z,28.4330,-82.6670,71.55,1111122 
COMPS,ioos:station:USF.COMPS:ARP:1,2019-01-01T23:48:00Z,28.4330,-82.6670,71.06,1111122 
COMPS,ioos:station:USF.COMPS:ARP:1,2019-01-01T23:54:00Z,28.4330,-82.6670,76.13,1111122 
COMPS,ioos:station:USF.COMPS:ARP:1,2019-01-02T00:00:00Z,28.4330,-82.6670,75.58,1111122 
COMPS,ioos:station:USF.COMPS:ARP:1,2019-01-02T00:06:00Z,28.4330,-82.6670,79.41,1111122 
COMPS,ioos:station:USF.COMPS:ARP:1,2019-01-02T00:12:00Z,28.4330,-82.6670,76.41,1111122 
COMPS,ioos:station:USF.COMPS:ARP:1,2019-01-02T00:18:00Z,28.4330,-82.6670,75.68,1111122 
COMPS,ioos:station:USF.COMPS:ARP:1,2019-01-02T00:24:00Z,28.4330,-82.6670,78.91,1111122 
COMPS,ioos:station:USF.COMPS:ARP:1,2019-01-02T00:30:00Z,28.4330,-82.6670,85.25,1111122 
COMPS,ioos:station:USF.COMPS:ARP:1,2019-01-02T00:36:00Z,28.4330,-82.6670,83.36,1111122 
COMPS,ioos:station:USF.COMPS:ARP:1,2019-01-02T00:42:00Z,28.4330,-82.6670,79.31,1111122 
COMPS,ioos:station:USF.COMPS:ARP:1,2019-01-02T00:48:00Z,28.4330,-82.6670,79.15,1111122 
COMPS,ioos:station:USF.COMPS:ARP:1,2019-01-02T00:54:00Z,28.4330,-82.6670,86.17,1111122 
COMPS,ioos:station:USF.COMPS:ARP:1,2019-01-02T01:00:00Z,28.4330,-82.6670,85.89,1111122 
COMPS,ioos:station:USF.COMPS:ARP:1,2019-01-02T01:06:00Z,28.4330,-82.6670,82.81,1111122 
COMPS,ioos:station:USF.COMPS:ARP:1,2019-01-02T01:12:00Z,28.4330,-82.6670,88.53,1111122 
COMPS,ioos:station:USF.COMPS:ARP:1,2019-01-02T01:18:00Z,28.4330,-82.6670,90.09,1111122 
COMPS,ioos:station:USF.COMPS:ARP:1,2019-01-02T01:24:00Z,28.4330,-82.6670,89.67,1111122 
COMPS,ioos:station:USF.COMPS:ARP:1,2019-01-02T01:30:00Z,28.4330,-82.6670,86.89,1111122 
COMPS,ioos:station:USF.COMPS:ARP:1,2019-01-02T01:36:00Z,28.4330,-82.6670,87.05,1111122 
COMPS,ioos:station:USF.COMPS:ARP:1,2019-01-02T01:42:00Z,28.4330,-82.6670,89.22,1111122 
COMPS,ioos:station:USF.COMPS:ARP:1,2019-01-02T01:48:00Z,28.4330,-82.6670,88.55,1111122 
COMPS,ioos:station:USF.COMPS:ARP:1,2019-01-02T01:54:00Z,28.4330,-82.6670,88.97,1111122 
COMPS,ioos:station:USF.COMPS:ARP:1,2019-01-02T02:00:00Z,28.4330,-82.6670,89.96,1111122 
COMPS,ioos:station:USF.COMPS:ARP:1,2019-01-02T02:06:00Z,28.4330,-82.6670,89.45,1111122 
COMPS,ioos:station:USF.COMPS:ARP:1,2019-01-02T02:12:00Z,28.4330,-82.6670,90.57,1111122 
COMPS,ioos:station:USF.COMPS:ARP:1,2019-01-02T02:18:00Z,28.4330,-82.6670,91.1,1111122 
COMPS,ioos:station:USF.COMPS:ARP:1,2019-01-02T02:24:00Z,28.4330,-82.6670,91.73,1111122 
COMPS,ioos:station:USF.COMPS:ARP:1,2019-01-02T02:30:00Z,28.4330,-82.6670,92.5,1111122 
COMPS,ioos:station:USF.COMPS:ARP:1,2019-01-02T02:36:00Z,28.4330,-82.6670,93.01,1111122 
COMPS,ioos:station:USF.COMPS:ARP:1,2019-01-02T02:42:00Z,28.4330,-82.6670,93.56,1111122 
COMPS,ioos:station:USF.COMPS:ARP:1,2019-01-02T02:48:00Z,28.4330,-82.6670,93.05,1111122 
COMPS,ioos:station:USF.COMPS:ARP:1,2019-01-02T02:54:00Z,28.4330,-82.6670,93.05,1111122 
COMPS,ioos:station:USF.COMPS:ARP:1,2019-01-02T03:00:00Z,28.4330,-82.6670,93.65,1111122 
COMPS,ioos:station:USF.COMPS:ARP:1,2019-01-02T03:06:00Z,28.4330,-82.6670,93.63,1111122 